Location: Wawayanda State Park
(41.1833°N, 74.4333°W)
Time: 13:11:46
(UTC-04:00)

Landsat 7 - Visible Passes

Search period start: 30 July 2014 00:00
Search period end: 09 August 2014 00:00
Orbit: 702 x 703 km, 98.2° (Epoch: 30 July)

Date Brightness Start Highest point End Pass type
(mag) Time Alt. Az. Time Alt. Az. Time Alt. Az.
30 Jul 5.9 21:04:11 10° E 21:05:47 12° ENE 21:07:23 10° NE visible
30 Jul 3.8 22:41:40 52° S 22:42:49 83° WSW 22:47:36 10° NNW visible
31 Jul 4.9 21:46:07 21° ESE 21:48:04 28° ENE 21:52:07 10° N visible
31 Jul 5.1 23:25:00 29° WSW 23:25:43 30° W 23:29:54 10° NW visible
01 Aug 3.7 22:29:27 50° SE 22:30:37 75° ENE 22:35:23 10° N visible
02 Aug 6.4 00:08:21 11° W 00:08:53 11° W 00:10:11 10° WNW visible
02 Aug 5.3 21:33:54 17° E 21:35:58 22° ENE 21:39:36 10° NNE visible
02 Aug 4.7 23:12:48 38° WSW 23:13:27 40° W 23:17:55 10° NNW visible
03 Aug 4.0 22:17:15 43° ESE 22:18:27 56° ENE 22:23:06 10° N visible
03 Aug 6.1 23:56:08 15° W 23:56:32 15° W 23:59:14 10° NW visible
04 Aug 5.6 21:21:42 13° E 21:23:54 17° ENE 21:26:57 10° NNE visible
04 Aug 4.2 23:00:35 50° SW 23:01:12 53° W 23:05:51 10° NNW visible
05 Aug 4.4 22:05:03 35° ESE 22:06:18 42° ENE 22:10:46 10° N visible
05 Aug 5.8 23:43:56 20° W 23:44:12 20° W 23:47:41 10° NW visible
06 Aug 5.9 21:09:37 10° E 21:11:50 13° ENE 21:14:04 10° NNE visible
06 Aug 3.8 22:48:23 64° SSW 22:48:58 72° WSW 22:53:43 10° NNW visible
07 Aug 4.7 21:52:51 28° E 21:54:10 32° ENE 21:58:23 10° N visible
07 Aug 5.4 23:31:44 26° W 23:31:54 26° W 23:35:53 10° NW visible
08 Aug 6.1 20:59:35 10° ENE 20:59:48 10° ENE 21:00:01 10° NE visible
08 Aug 3.6 22:36:12 70° SSE 22:36:45 86° ENE 22:41:32 10° NNW visible
